Weather History for Detroit Lakes, MN

Change the Weather History Date:

Tuesday, November 15, 2011

  Actual Average Record
Temperature  
Mean Temperature 32 °F -  
Max Temperature 35 °F 37 °F 67 °F (1953)
Min Temperature 28 °F 20 °F -17 °F (1933)
Degree Days  
Heating Degree Days 34    
Moisture  
Dew Point 29 °F    
Average Humidity 90    
Maximum Humidity 100    
Minimum Humidity 70    
Precipitation  
Precipitation 0.00 in - - ()
Sea Level Pressure  
Sea Level Pressure 29.61 in    
Wind  
Wind Speed 9 mph (West)    
Max Wind Speed 32 mph    
Max Gust Speed 44 mph    
Visibility 9 miles    
Events Snow    
Averages and records for this station are not official NWS values.
T = Trace of Precipitation, MM = Missing Value Source: NWS Daily Summary

Daily Weather History Graph

Daily Weather History Graph

Search for Another Location

Airport:

Trip Planner

Search our weather history database for the weather conditions in past years. The results will help you decide how hot, cold, wet, or windy it might be!

Date:

Astronomy

Nov. 15, 2011 Rise Set
Actual Time 7:26 AM CST 4:49 PM CST
Civil Twilight 6:53 AM CST 5:22 PM CST
Nautical Twilight 6:16 AM CST 5:59 PM CST
Astronomical Twilight 5:40 AM CST 6:35 PM CST
Moon 8:58 PM CST (11/15) 11:28 AM CST (11/15)
Length of Visible Light 10h 29m
Length of Day
9h 23m
Waning Gibbous, 79% of the Moon is Illuminated
Nov 15
Waning Gibbous
Nov 18
Last Quarter
Nov 25
New
Dec 2
First Quarter
Dec 10
Full

Hourly Weather History & Observations

Time (CST) Temp. Windchill Dew Point Humidity Pressure Visibility Wind Dir Wind Speed Gust Speed Precip Events Conditions
12:13 AM 33.8 °F 27.7 °F 30.2 °F 87% 29.51 in 10.0 mi West 6.9 mph - N/A   Scattered Clouds
12:34 AM 35.6 °F 29.2 °F 30.2 °F 81% 29.51 in 10.0 mi West 8.1 mph - N/A   Clear
12:53 AM 33.8 °F 27.0 °F 30.2 °F 87% 29.52 in 10.0 mi West 8.1 mph - N/A   Clear
1:13 AM 33.8 °F 28.6 °F 30.2 °F 87% 29.52 in 10.0 mi West 5.8 mph - N/A   Clear
1:34 AM 33.8 °F 29.6 °F 28.4 °F 81% 29.51 in 10.0 mi WNW 4.6 mph - N/A   Clear
1:54 AM 32.0 °F 28.7 °F 28.4 °F 87% 29.51 in 10.0 mi South 3.5 mph - N/A   Clear
2:13 AM 32.0 °F - 30.2 °F 93% 29.52 in 10.0 mi Calm Calm - N/A   Scattered Clouds
2:34 AM 32.0 °F 28.7 °F 30.2 °F 93% 29.52 in 10.0 mi SW 3.5 mph - N/A   Scattered Clouds
2:53 AM 32.0 °F - 30.2 °F 93% 29.51 in 10.0 mi Calm Calm - N/A   Scattered Clouds
3:13 AM 32.0 °F - 30.2 °F 93% 29.51 in 10.0 mi Calm Calm - N/A   Scattered Clouds
3:34 AM 32.0 °F - 30.2 °F 93% 29.51 in 10.0 mi Calm Calm - N/A   Scattered Clouds
3:54 AM 32.0 °F - 30.2 °F 93% 29.51 in 10.0 mi Calm Calm - N/A   Scattered Clouds
4:53 AM 30.2 °F - 30.2 °F 100% 29.53 in 10.0 mi Calm Calm - N/A   Clear
5:13 AM 30.2 °F - 30.2 °F 100% 29.53 in 10.0 mi Calm Calm - N/A   Clear
5:53 AM 30.2 °F - 30.2 °F 100% 29.53 in 10.0 mi Calm Calm - N/A   Clear
7:13 AM 28.4 °F - 28.4 °F 100% 29.55 in 10.0 mi Calm Calm - N/A   Clear
7:34 AM 28.4 °F 24.6 °F 28.4 °F 100% 29.56 in 2.0 mi West 3.5 mph - N/A   Clear
7:53 AM 28.4 °F - 28.4 °F 100% 29.56 in 10.0 mi Calm Calm - N/A   Clear
8:13 AM 30.2 °F - 28.4 °F 93% 29.56 in 10.0 mi Calm Calm - N/A   Clear
8:34 AM 28.4 °F 24.6 °F 28.4 °F 100% 29.55 in 10.0 mi East 3.5 mph - N/A   Clear
9:13 AM 32.0 °F 28.7 °F 30.2 °F 93% 29.54 in 10.0 mi SSE 3.5 mph - N/A   Clear
9:34 AM 32.0 °F - 32.0 °F 100% 29.54 in 10.0 mi Calm Calm - N/A   Clear
9:53 AM 33.8 °F 29.6 °F 32.0 °F 93% 29.55 in 10.0 mi SSW 4.6 mph - N/A   Clear
10:13 AM 35.6 °F 29.2 °F 32.0 °F 87% 29.54 in 10.0 mi South 8.1 mph - N/A   Clear
10:34 AM 33.8 °F 29.6 °F 32.0 °F 93% 29.56 in 10.0 mi SSW 4.6 mph - N/A   Scattered Clouds
10:53 AM 35.6 °F 27.1 °F 32.0 °F 87% 29.58 in 7.0 mi SW 12.7 mph 17.3 mph N/A Snow Light Snow
11:34 AM 33.8 °F 24.8 °F 32.0 °F 93% 29.57 in 5.0 mi WSW 12.7 mph - N/A Snow Snow
11:53 AM 32.0 °F 24.8 °F 32.0 °F 100% 29.57 in 7.0 mi WSW 8.1 mph - N/A   Mostly Cloudy
12:13 PM 33.8 °F 24.3 °F 32.0 °F 93% 29.58 in 10.0 mi West 13.8 mph 20.7 mph N/A   Scattered Clouds
12:33 PM 33.8 °F 24.8 °F 32.0 °F 93% 29.58 in 10.0 mi West 12.7 mph - N/A   Scattered Clouds
12:53 PM 33.8 °F 25.3 °F 32.0 °F 93% 29.57 in 10.0 mi West 11.5 mph - N/A   Mostly Cloudy
1:13 PM 35.6 °F 24.2 °F 28.4 °F 75% 29.58 in 10.0 mi WSW 21.9 mph 28.8 mph N/A   Mostly Cloudy
1:34 PM 35.6 °F 22.7 °F 26.6 °F 70% 29.55 in 10.0 mi West 28.8 mph 38.0 mph N/A   Mostly Cloudy
2:13 PM 32.0 °F 18.9 °F 28.4 °F 87% 29.57 in 4.0 mi West 24.2 mph 40.3 mph N/A Snow Light Snow
2:33 PM 32.0 °F 19.8 °F 28.4 °F 87% 29.59 in 10.0 mi West 20.7 mph 35.7 mph N/A Snow Light Snow
2:53 PM 32.0 °F 19.5 °F 28.4 °F 87% 29.59 in 10.0 mi West 21.9 mph 32.2 mph N/A   Mostly Cloudy
3:13 PM 32.0 °F 17.2 °F 28.4 °F 87% 29.62 in 10.0 mi West 32.2 mph 39.1 mph N/A   Overcast
3:34 PM 32.0 °F 18.6 °F 28.4 °F 87% 29.63 in 10.0 mi WNW 25.3 mph 43.7 mph N/A   Overcast
3:53 PM 32.0 °F 18.9 °F 28.4 °F 87% 29.65 in 10.0 mi West 24.2 mph 41.4 mph N/A   Overcast
4:13 PM 30.2 °F 15.4 °F 28.4 °F 93% 29.66 in 10.0 mi WNW 28.8 mph 38.0 mph N/A   Overcast
4:34 PM 30.2 °F 16.2 °F 28.4 °F 93% 29.68 in 10.0 mi West 25.3 mph 33.4 mph N/A Snow Light Snow
4:53 PM 30.2 °F 17.8 °F 28.4 °F 93% 29.70 in 10.0 mi WNW 19.6 mph 32.2 mph N/A Snow Light Snow
5:12 PM 30.2 °F 16.5 °F 28.4 °F 93% 29.71 in 7.0 mi WNW 24.2 mph 31.1 mph N/A Snow Light Snow
5:33 PM 30.2 °F 18.5 °F 26.6 °F 86% 29.73 in 10.0 mi WNW 17.3 mph 29.9 mph N/A   Overcast
5:54 PM 30.2 °F 16.8 °F 26.6 °F 86% 29.75 in 10.0 mi WNW 23.0 mph 31.1 mph N/A   Overcast
6:13 PM 30.2 °F 17.4 °F 26.6 °F 86% 29.77 in 7.0 mi WNW 20.7 mph 28.8 mph N/A Snow Light Snow
6:33 PM 30.2 °F 17.4 °F 26.6 °F 86% 29.78 in 7.0 mi WNW 20.7 mph 31.1 mph N/A Snow Light Snow
6:54 PM 28.4 °F 15.1 °F 26.6 °F 93% 29.79 in 7.0 mi NW 20.7 mph 29.9 mph N/A Snow Light Snow
7:13 PM 30.2 °F 17.4 °F 24.8 °F 80% 29.80 in 10.0 mi NW 20.7 mph 27.6 mph N/A Snow Light Snow
7:34 PM 28.4 °F 15.1 °F 23.0 °F 80% 29.81 in 10.0 mi WNW 20.7 mph 26.5 mph N/A   Mostly Cloudy
7:53 PM 28.4 °F 16.6 °F 24.8 °F 86% 29.82 in 10.0 mi WNW 16.1 mph 29.9 mph N/A Snow Light Snow
8:13 PM 28.4 °F 16.6 °F 24.8 °F 86% 29.82 in 10.0 mi WNW 16.1 mph 23.0 mph N/A   Scattered Clouds
8:33 PM 28.4 °F 16.2 °F 23.0 °F 80% 29.83 in 10.0 mi WNW 17.3 mph 23.0 mph N/A   Mostly Cloudy
8:53 PM 28.4 °F 17.0 °F 23.0 °F 80% 29.84 in 10.0 mi WNW 15.0 mph 25.3 mph N/A   Mostly Cloudy
9:14 PM 28.4 °F 19.7 °F 23.0 °F 80% 29.84 in 10.0 mi WNW 9.2 mph - N/A   Mostly Cloudy
9:33 PM 28.4 °F 17.5 °F 23.0 °F 80% 29.85 in 10.0 mi WNW 13.8 mph - N/A   Overcast
9:53 PM 28.4 °F 17.0 °F 23.0 °F 80% 29.84 in 10.0 mi WNW 15.0 mph - N/A   Mostly Cloudy
10:13 PM 28.4 °F 17.0 °F 23.0 °F 80% 29.85 in 10.0 mi WNW 15.0 mph 20.7 mph N/A   Overcast
10:33 PM 28.4 °F 17.5 °F 23.0 °F 80% 29.85 in 10.0 mi WNW 13.8 mph 21.9 mph N/A   Overcast
10:53 PM 28.4 °F 17.0 °F 21.2 °F 74% 29.86 in 10.0 mi WNW 15.0 mph 23.0 mph N/A   Overcast
11:13 PM 28.4 °F 15.4 °F 21.2 °F 74% 29.86 in 10.0 mi WNW 19.6 mph 24.2 mph N/A   Mostly Cloudy
11:34 PM 28.4 °F 17.5 °F 21.2 °F 74% 29.87 in 10.0 mi WNW 13.8 mph 20.7 mph N/A   Mostly Cloudy